Погода в Туре

Погода в Туре : погода сейчас, прогноз погоды и архив. Всё, что Вы хотите узнать о погоде в Туре!

Хотите узнать прогноз погоды в Туре? Тогда Вам сюда: Погода в Туре

Поиск расширенной информации на нашем сайте:

Другие новости

Новости СМИ2

Главная страница сайта

Новости сайта

02.10.2013

Напоминаем, что на нашем новом сайте вы можете получить высокодетализированные прогнозы погоды по пунктам России, СНГ и мира (включающие важные для авиации метеовеличины, такие как направление и скорость ветра, видимость, явления погоды, количество и форма облачности, нижняя и верхняя граница облачности), а также ознакомиться с разнообразными материалами по авиационной метеорологии и подборкой полезных ссылок на эту тему.

Сайт Метеоцентр.Азия посвящён разработке технологий оптимизации авиаметеорологического обслуживания, включая проектирование и перспективное создание нескольких автоматизированных авиаметеорологических систем:
- система выпуска высокодетальных прогностических карт явлений погоды для нижнего воздушного пространства по России и ближнему зарубежью;
- система верификации прогнозов TAF (выпускаемых синоптиками официальных АМСГ РФ и ближнего зарубежья) и AUTOTAF (выпускаемых сайтом Метеоцентр.Азия) - выявление ошибок, онлайн-сопоставление с фактической погодой METAR, автоматическое внесение коррективов в прогнозы при резком отклонении фактической погоды от прогноза, подсчёт оправдываемости прогнозов по элементам и в целом;
- система обработки, анализа и отображения авиаметеорологической информации для применения провайдерами метеорологической информации.


Погода в Туре - сегодня

Время (UTC), дата Ветер
(°,м/с) 
Видим.   Явления Облачность Т
(°С)
Тd
(°С)
f(%) Тe
(°С)
Pmin
(гПа)
dP
(гПа)
Po
(мм)
O2
(г/м3)
Тmin Tmax R s Состояние
почвы
21 19.06.17 230 (ЮЗ) 20000 м    ясно 
+17 +8 55 +18  1006.8  0.4  738  279           
00 20.06.17 240 (ЮЗ) 20000 м    3/0 верхняя 
[Ci fib]
+20.2 +9.6 50 +21  1006.3  -0.2  738  275  +15         
03 20.06.17 260 (З) 20000 м    ясно 
+27 +9.8 34 +28  1004.9  -0.9  738  269           
06 20.06.17 230 (ЮЗ) 20000 м    6/6 1000 м 
[Cu med, cong]
+32.4 +10.2 26 +34  1003.2  -1.2  737  264           
09 20.06.17 220 (ЮЗ) 3{10}  20000 м    3/3 1000 м 
[Cu med, cong]
+32.8 +8.4 22 +33  1001.9  -1.3  736  263           
12 20.06.17 240 (ЮЗ) 20000 м    3/3 1000 м 
[Cu hum]
+31.8 +8.9 24 +32  1001.8  -0.2  736  264    +33.1       
15 20.06.17 020 (С) 20000 м    8/3 1000 м средняя, верхняя 
[Cu hum|Ac trans|Ci fib]
+23.3 +10.7 45 +26  1002.3  736  271           
18 20.06.17 270 (З) н/о    10/3 1000 м средняя, верхняя 
[Sc|Ac trans|Ci fib]
+21.3 +13.1 59 +27  1004.7  2.1  737  273           
21 20.06.17 330 (СЗ) 20000 м    3/0 верхняя 
[Ci sp]
+16.5 -12.7 12 +18  1005.1  737  281           
00 21.06.17 190 (Ю) 20000 м    1/1 1000 м 
[Cu med, cong]
+19.5 +14.2 71 +29  1004.1  -0.6  737  274  +16         
03 21.06.17 160 (Ю) 20000 м    6/0 средняя, верхняя 
[Ac trans|Ci fib]
+28.2 +14.9 44 +37  1002  -1.5  736  266           
06 21.06.17 190 (Ю) 10 км  дым  6/4 1000 м верхняя 
[Cu Sc|Ci fib]
+32.2 +7.6 22 +32  1000.1  -1.7  734  263           
09 21.06.17 190 (Ю) 4{11}  10 км  дым  3/3 1000 м 
[Cu hum]
+33.4 +6.5 19 +33  998.4  -1.5  733  262           
12 21.06.17 190 (Ю) 10 км  дым  4/4 1000 м 
[Cu Sc]
+32.5 +4.6 17 +33  997.8  -0.6  733  263    +33.8       
15 21.06.17 150 (ЮВ) 10 км  дым  8/3 1000 м средняя, верхняя 
[Sc|Ac trans|Ci fib]
+27.4 +8.6 31 +27  997.5  -0.6  732  267           
18 21.06.17 020 (С) н/о  дым  8/0 средняя, верхняя 
[Ac trans|Ci fib]
+17.4 +11.8 70 +23  998.3  732  275           
21 21.06.17 290 (З) 10 км  дым  8/6 1000 м верхняя 
[Sc|Ci fib]
+15.7 +11 74 +20  998.7  0.3  732  277           
00 22.06.17 110 (В) 10 км  дым  9/8 1000 м верхняя 
[Sc|Ci fib]
+18 +12.8 72 +25  998.1  -0.4  732  274  +15.4         
03 22.06.17 130 (ЮВ) 10 км  дым  10/10 600 м кучево-дожд. 
[Cb cap]
+23.2 +16.3 65 +35  996.5  -1.2  731  268           
06 22.06.17 270 (З) 10 км  дым  10/10 600 м кучево-дожд. 
[Cb cap]
+22.1 +15.4 66 +32  996.6  731  269           
09 22.06.17 230 (ЮЗ) 4{10}  10 км  дым  8/6 600 м кучево-дожд., средняя, верхняя 
[Cb cap|Ac trans|Ci fib]
+27 +14.4 46 +35  995.9  -0.3  731  265           
12 22.06.17 250 (З) 5{12}  10 км  дым{ливн. осадки}  8/8 600 м кучево-дожд. 
[Cb cap]
+23.4 +14.1 56 +31  998.3  2.1  733  269    +27.5  0.0     
15 22.06.17 290 (З) 3{13}  20000 м    6/6 600 м кучево-дожд. 
[Cb cap]
+18.8 +10.7 59 +22  1001.8  735  275           
18 22.06.17 280 (З) н/о    3/3 1000 м 
[Cu hum]
+15.5 +9.5 67 +17  1003.7  1.7  736  279           
21 22.06.17 310 (СЗ) 20000 м    3/3 1000 м 
[Cu hum]
+12.8 +10.3 85 +16  1005.2  1.1  737  282           
Время (UTC), дата Ветер
(°,м/с) 
Видим.   Явления Облачность Т
(°С)
Тd
(°С)
f(%) Тe
(°С)
Pmin
(гПа)
dP
(гПа)
Po
(мм)
O2
(г/м3)
Тmin Tmax R s Состояние
почвы

Для получения пояснительной информации подведите курсор к названию столбца.

ПОГОДА в Туре - архив

Всё, что Вы хотите узнать о погоде в Туре - удобно и подробно!

Выберите нужную дату (начиная с 1 января 2015* года) и нажмите кнопку "Найти".
Будут отображены архивные сводки погоды по пункту Тура, начиная с указанной даты.


Отображать данные в формате CSV (для использования в таблицах Excel)


Внимание! Наш архив погоды предназначен исключительно для личного некоммерческого использования в познавательных целях. Если Вам необходимы официальные справки о состоянии погоды (для производственных, юридических, коммерческих и т.п. целей), обращайтесь в органы Росгидромета.

*Примечание: данная дата относится к архиву по метеостанциям СССР (Россия, СНГ, Балтия).
Архив по метеостанциям Зарубежной Европы и Азии (кроме Китая) хранится 10 дней, по другим регионам земного шара (Китай, Африка, Америка, Австралия, Океания) - 1 день.

Тура - район местоположения метеостанции


Название, широта, долгота, высота метеостанции:
Тура 64.3°ш. 100.2°д. 168 м над ур. моря [Российская Федерация]

Дополнительная информация

В oтличие oт бoльшинства пoгoдных сайтoв мы публикуем пoдрoбную метеoинфoрмацию в детальнoм прoфессиoнальнoм фoрмате.

Характеристики температуры и влажнoсти вoздуха измеряются на высoте 2 м в тени вдали oт зданий и деревьев.
Скoрoсть ветра измеряется на высoте 10 м (на урoвне рoста челoвека скoрoсть ветра ниже в 1.5-2 раза). Если метеoстанция нахoдится в гoрoде или в лесу, тo скoрoсть ветра занижена на 2-4 м/с пo сравнению с oткрытым местoм. Скoрoсть ветра над акватoриями крупных рек и oзёр, а также на вершинах хoлмoв на 2-5 м/с выше, чем в oбычных услoвиях.
Атмoсфернoе давление в разных тoчках местнoсти мoжет значительнo oтличаться oт давления на метеoстанции, в зависимoсти oт услoвий рельефа (при пoдъёме на 10 м давление пoнижается примернo на 1 мм рт.ст.).